Weather History for Port Angeles, WA

Change the Weather History Date:

Tuesday, September 17, 2013

  Actual Average Record
Temperature  
Mean Temperature 58 °F -  
Max Temperature 64 °F 64 °F 78 °F (2012)
Min Temperature 53 °F 48 °F 36 °F (1987)
Degree Days  
Heating Degree Days 7    
Growing Degree Days 8 (Base 50)    
Moisture  
Dew Point 50 °F    
Average Humidity 76    
Maximum Humidity 89    
Minimum Humidity 67    
Precipitation  
Precipitation 0.00 in - - ()
Sea Level Pressure  
Sea Level Pressure 29.90 in    
Wind  
Wind Speed 8 mph (WNW)    
Max Wind Speed 13 mph    
Max Gust Speed 18 mph    
Visibility 10 miles    
Events      
Averages and records for this station are not official NWS values.
T = Trace of Precipitation, MM = Missing Value Source: NWS Daily Summary

Daily Weather History Graph

Daily Weather History Graph

Search for Another Location

Airport:

Trip Planner

Search our weather history database for the weather conditions in past years. The results will help you decide how hot, cold, wet, or windy it might be!

Date:

Astronomy

Sep. 17, 2013 Rise Set
Actual Time 6:54 AM PDT 7:21 PM PDT
Civil Twilight 6:23 AM PDT 7:52 PM PDT
Nautical Twilight 5:46 AM PDT 8:29 PM PDT
Astronomical Twilight 5:07 AM PDT 9:07 PM PDT
Moon 6:15 PM PDT (9/17) 4:49 AM PDT (9/17)
Length of Visible Light 13h 29m
Length of Day
12h 27m
Waxing Gibbous, 96% of the Moon is Illuminated
Sep 17
Waxing Gibbous
Sep 19
Full
Sep 26
Last Quarter
Oct 4
New
Oct 11
First Quarter

Hourly Weather History & Observations

Time (PDT) Temp. Dew Point Humidity Pressure Visibility Wind Dir Wind Speed Gust Speed Precip Events Conditions
12:53 AM 55.0 °F 51.1 °F 86% 29.93 in 10.0 mi NW 4.6 mph - N/A   Overcast
1:53 AM 53.1 °F 50.0 °F 89% 29.92 in 10.0 mi West 4.6 mph - N/A   Overcast
2:53 AM 54.0 °F 50.0 °F 86% 29.91 in 10.0 mi West 8.1 mph - N/A   Overcast
3:53 AM 55.9 °F 48.9 °F 77% 29.91 in 10.0 mi WSW 9.2 mph - N/A   Overcast
4:53 AM 55.0 °F 48.0 °F 77% 29.89 in 10.0 mi West 8.1 mph - N/A   Mostly Cloudy
5:53 AM 55.0 °F 48.0 °F 77% 29.90 in 10.0 mi SW 9.2 mph - N/A   Partly Cloudy
6:53 AM 55.0 °F 46.9 °F 74% 29.88 in 10.0 mi WSW 6.9 mph - N/A   Clear
7:53 AM 55.9 °F 46.9 °F 72% 29.89 in 10.0 mi WSW 9.2 mph - N/A   Clear
8:53 AM 57.0 °F 48.0 °F 72% 29.88 in 10.0 mi WSW 9.2 mph - N/A   Clear
9:53 AM 60.1 °F 48.9 °F 67% 29.88 in 10.0 mi West 8.1 mph - N/A   Clear
10:53 AM 60.1 °F 52.0 °F 75% 29.88 in 10.0 mi NW 5.8 mph - N/A   Clear
11:53 AM 62.1 °F 52.0 °F 70% 29.89 in 10.0 mi WNW 10.4 mph - N/A   Mostly Cloudy
12:53 PM 61.0 °F 52.0 °F 72% 29.88 in 10.0 mi NW 11.5 mph - N/A   Mostly Cloudy
1:53 PM 62.1 °F 53.1 °F 72% 29.88 in 10.0 mi NW 9.2 mph - N/A   Clear
2:53 PM 60.1 °F 53.1 °F 78% 29.88 in 10.0 mi NW 8.1 mph - N/A   Mostly Cloudy
3:53 PM 63.0 °F 53.1 °F 70% 29.87 in 10.0 mi WNW 10.4 mph 16.1 mph N/A   Partly Cloudy
4:53 PM 62.1 °F 51.1 °F 67% 29.87 in 10.0 mi WNW 12.7 mph 18.4 mph N/A   Clear
5:53 PM 60.1 °F 51.1 °F 72% 29.88 in 10.0 mi NW 10.4 mph - N/A   Clear
6:53 PM 59.0 °F 51.1 °F 75% 29.89 in 10.0 mi WNW 10.4 mph - N/A   Clear
7:53 PM 57.0 °F 51.1 °F 81% 29.90 in 10.0 mi WNW 9.2 mph - N/A   Clear
8:53 PM 55.9 °F 48.9 °F 77% 29.92 in 10.0 mi WNW 6.9 mph - N/A   Clear
9:53 PM 55.9 °F 48.0 °F 75% 29.93 in 10.0 mi West 8.1 mph - N/A   Clear
10:53 PM 55.0 °F 48.0 °F 77% 29.93 in 10.0 mi West 6.9 mph - N/A   Clear
11:53 PM 54.0 °F 46.9 °F 77% 29.94 in 10.0 mi WSW 9.2 mph - N/A   Clear